{"data":{"norad_id":65273,"intl_designator":"2025-184A","name":"STARLINK-34922","alt_names":[],"object_type":"PAYLOAD","status":"ACTIVE","operator":null,"country":"US","launch_date":"2025-08-22","launch_site_code":"AFWTR","launch_vehicle":null,"mission":null,"orbit_class":"UNKNOWN","rcs_meters":null,"size_class":null,"mass_kg":null,"dimensions":null,"purposes":["comms"],"wikipedia_slug":null,"has_3d_model":false,"image_url":null,"decayed_at":null,"tle_current":{"epoch":"2026-09-19T10:39:07.826976Z","epoch_age_seconds":208839,"freshness":"STALE","line1":"1 65273U 25184A   26262.44384059  .00012712  00000+0  39533-3 0  9996","line2":"2 65273  97.2857 310.4419 0001626  97.1962 262.9466 15.33452051 60565","mean_motion":15.33452051,"eccentricity":0.0001626,"inclination_deg":97.2857,"raan_deg":310.4419,"arg_perigee_deg":97.1962,"mean_anomaly_deg":262.9466,"bstar":0.00039533,"rev_number":6056,"period_min":93.905772864625,"perigee_km":464.40941675809,"apogee_km":466.63497472854,"semimajor_km":6843.6591957433,"source":"CELESTRAK","updated_at":"2026-09-21T09:00:35.562947Z"}}}